Osoyoos, British Columbia

9:14 PM PDT on May 25, 2017 (GMT -0700)
Osoyoos

Weather History for CWYY - March, 2013

Change the Weather History Date:

Saturday, March 23, 2013

  Actual Average (KOMK) Record (KOMK)
Temperature  
Mean Temperature 36 °F 44 °F  
Max Temperature 50 °F 56 °F 70 °F (1940)
Min Temperature 21 °F 33 °F 11 °F (1996)
Degree Days  
Heating Degree Days 30 21  
Month to date heating degree days 575  
Since 1 July heating degree days 5436  
Cooling Degree Days 0 0  
Month to date cooling degree days 0  
Year to date cooling degree days 0  
Moisture  
Dew Point 19 °F    
Average Humidity 53    
Maximum Humidity 85    
Minimum Humidity 14    
Precipitation  
Precipitation 0.00 in 0.04 in 0.38 in (1978)
Month to date precipitation 0.92  
Year to date precipitation 4.22  
Sea Level Pressure  
Sea Level Pressure 30.34 in    
Wind  
Wind Speed 2 mph ()    
Max Wind Speed 5 mph    
Max Gust Speed -    
T = Trace of Precipitation, MM = Missing Value Source: Averaged Metar Reports

Daily Weather History Graph

Daily Weather History Graph

Search for Another Location

Airport or City:

Trip Planner

Search our weather history database for the weather conditions in past years. The results will help you decide how hot, cold, wet, or windy it might be!

Date:

Astronomy

Mar. 23, 2013 Rise Set
Actual Time 6:53 AM PDT 7:15 PM PDT
Civil Twilight 6:21 AM PDT 7:47 PM PDT
Nautical Twilight 5:44 AM PDT 8:25 PM PDT
Astronomical Twilight 5:05 AM PDT 9:04 PM PDT
Moon 3:32 PM PDT (3/23) 4:49 AM PDT (3/23)
Length of Visible Light 13h 25m
Length of Day
12h 22m
Waxing Gibbous, 86% of the Moon is Illuminated
Mar 23
Waxing Gibbous
Mar 27
Full
Apr 2
Last Quarter
Apr 10
New
Apr 18
First Quarter

Hourly Weather History & Observations

Time (PDT) Temp. Windchill Dew Point Humidity Pressure Visibility Wind Dir Wind Speed Gust Speed Precip Events Conditions
12:00 AM 33.8 °F - 22.5 °F 63% 30.33 in - East 2.3 mph - N/A   Unknown
1:00 AM 31.3 °F 26.6 °F 22.6 °F 70% 30.35 in - NE 4.6 mph - N/A   Unknown
2:00 AM 28.9 °F - 21.7 °F 74% 30.36 in - East 1.2 mph - N/A   Unknown
3:00 AM 29.3 °F - 20.3 °F 69% 30.37 in - NNE 2.3 mph - N/A   Unknown
4:00 AM 28.2 °F - 20.1 °F 72% 30.37 in - NNE 2.3 mph - N/A   Unknown
5:00 AM 24 °F - 19 °F 73% 30.39 in - NNE 1.2 mph - -  
5:00 AM 24.4 °F - 18.9 °F 79% 30.39 in - NNE 1.2 mph - N/A   Unknown
6:00 AM 22.5 °F - 18.3 °F 84% 30.40 in - East 1.2 mph - N/A   Unknown
7:00 AM 22.1 °F - 18.3 °F 85% 30.41 in - East 1.2 mph - N/A   Unknown
8:00 AM 25.5 °F - 21.0 °F 83% 30.42 in - NNE 2.3 mph - N/A   Unknown
9:00 AM 31.8 °F - 21.6 °F 66% 30.41 in - NE 2.3 mph - N/A   Unknown
10:00 AM 36.9 °F - 21.6 °F 54% 30.40 in - ESE 1.2 mph - N/A   Unknown
11:00 AM 37 °F - 17 °F 31% 30.39 in - West 2.3 mph - -  
11:00 AM 37.0 °F - 17.4 °F 45% 30.39 in - West 2.3 mph - N/A   Unknown
12:00 PM 40.1 °F - 18.0 °F 41% 30.37 in - SW 2.3 mph - N/A   Unknown
1:00 PM 43.2 °F - 14.9 °F 32% 30.34 in - WNW 2.3 mph - N/A   Unknown
2:00 PM 45.5 °F 44.2 °F 16.2 °F 31% 30.32 in - SSW 3.5 mph - N/A   Unknown
3:00 PM 47.8 °F - 15.8 °F 28% 30.30 in - South 2.3 mph - N/A   Unknown
4:00 PM 49.3 °F - 10.8 °F 21% 30.29 in - SSE 2.3 mph - N/A   Unknown
5:00 PM 48 °F - 14 °F 14% 30.28 in - SSW 3.5 mph - -  
5:00 PM 48.4 °F - 13.6 °F 25% 30.28 in - SSW 3.5 mph - N/A   Unknown
6:00 PM 47.1 °F - 12.9 °F 25% 30.27 in - South 2.3 mph - N/A   Unknown
7:00 PM 43.7 °F - 18.1 °F 36% 30.27 in - SSE 1.2 mph - N/A   Unknown
8:00 PM 37.2 °F - 22.8 °F 56% 30.28 in - ENE 1.2 mph - N/A   Unknown
9:00 PM 39.2 °F 37.0 °F 23.7 °F 54% 30.29 in - North 3.5 mph - N/A   Unknown
11:00 PM 33 °F - 23 °F 55% 30.32 in - South 1.2 mph - -  
11:00 PM 31.5 °F - 23.0 °F 71% 30.32 in - South 1.2 mph - N/A   Unknown